| time (UTC) | temp F | wind direction | speed MPH | gust MPH | rain 1hr in | rain 24hr in | rain mn in | humidity % | barometer mb |
| 20260507023100 | 75 | 263 | 1.0 | 6.0 | 0.00 | 0.00 | 0.00 | 37 | 1011.3 |
| 20260507021558 | 75 | 263 | 3.0 | 11.0 | 0.00 | 0.00 | 0.00 | 37 | 1011.3 |
| 20260507020104 | 76 | 360 | 5.0 | 13.0 | 0.00 | 0.00 | 0.00 | 37 | 1011.3 |
| 20260507014608 | 77 | 360 | 5.0 | 12.0 | 0.00 | 0.00 | 0.00 | 41 | 1011.3 |
| 20260507013059 | 77 | 360 | 8.0 | 13.0 | 0.00 | 0.00 | 0.00 | 41 | 1011.2 |
| 20260507011604 | 77 | 360 | 8.0 | 14.0 | 0.00 | 0.00 | 0.00 | 39 | 1011.1 |
| 20260507010059 | 77 | 360 | 6.0 | 14.0 | 0.00 | 0.00 | 0.00 | 39 | 1011.1 |
| 20260507004602 | 77 | 360 | 10.0 | 16.0 | 0.00 | 0.00 | 0.00 | 39 | 1011.2 |
| 20260507003100 | 78 | 360 | 12.0 | 18.0 | 0.00 | 0.00 | 0.00 | 39 | 1011.1 |
| 20260507001614 | 78 | 360 | 11.0 | 17.0 | 0.00 | 0.00 | 0.00 | 39 | 1010.9 |
| 20260506234603 | 78 | 360 | 12.0 | 18.0 | 0.00 | 0.00 | 0.00 | 41 | 1011.0 |
| 20260506233059 | 78 | 360 | 13.0 | 18.0 | 0.00 | 0.00 | 0.00 | 42 | 1010.9 |
| 20260506231559 | 78 | 360 | 12.0 | 20.0 | 0.00 | 0.00 | 0.00 | 45 | 1011.2 |
| 20260506230059 | 78 | 360 | 13.0 | 20.0 | 0.00 | 0.00 | 0.00 | 44 | 1011.4 |
| 20260506224559 | 79 | 360 | 10.0 | 16.0 | 0.00 | 0.00 | 0.00 | 42 | 1011.3 |
| 20260506223057 | 79 | 360 | 11.0 | 18.0 | 0.00 | 0.00 | 0.00 | 39 | 1011.3 |
| 20260506221601 | 80 | 360 | 11.0 | 18.0 | 0.00 | 0.00 | 0.00 | 40 | 1011.5 |
| 20260506220108 | 80 | 360 | 10.0 | 17.0 | 0.00 | 0.00 | 0.00 | 38 | 1011.7 |
| 20260506214557 | 81 | 360 | 8.0 | 19.0 | 0.00 | 0.00 | 0.00 | 40 | 1012.0 |
| 20260506213102 | 80 | 360 | 8.0 | 18.0 | 0.00 | 0.00 | 0.00 | 39 | 1012.1 |
| 20260506211558 | 80 | 360 | 8.0 | 17.0 | 0.00 | 0.00 | 0.00 | 39 | 1012.1 |
| 20260506210120 | 81 | 360 | 7.0 | 13.0 | 0.00 | 0.00 | 0.00 | 36 | 1012.2 |
| 20260506204558 | 81 | 360 | 10.0 | 16.0 | 0.00 | 0.00 | 0.00 | 37 | 1012.3 |
| 20260506203141 | 81 | 360 | 10.0 | 18.0 | 0.00 | 0.00 | 0.00 | 38 | 1012.4 |
| 20260506201558 | 82 | 360 | 8.0 | 16.0 | 0.00 | 0.00 | 0.00 | 37 | 1012.5 |
| 20260506200059 | 81 | 360 | 7.0 | 19.0 | 0.00 | 0.00 | 0.00 | 37 | 1012.3 |
| 20260506194558 | 82 | 258 | 8.0 | 15.0 | 0.00 | 0.00 | 0.00 | 35 | 1012.7 |
| 20260506193057 | 82 | 291 | 4.0 | 9.0 | 0.00 | 0.00 | 0.00 | 27 | 1013.0 |
| 20260506191605 | 81 | 299 | 2.0 | 10.0 | 0.00 | 0.00 | 0.00 | 29 | 1013.0 |
| 20260506190100 | 80 | 0 | 0.0 | 8.0 | 0.00 | 0.00 | 0.00 | 29 | 1013.2 |
| 20260506184601 | 81 | 287 | 1.0 | 13.0 | 0.00 | 0.00 | 0.00 | 29 | 1013.3 |
| 20260506183111 | 80 | 0 | 4.0 | 8.0 | 0.00 | 0.00 | 0.00 | 30 | 1013.5 |
| 20260506181601 | 80 | 0 | 0.0 | 3.0 | 0.00 | 0.00 | 0.00 | 30 | 1013.7 |
| 20260506174609 | 78 | 306 | 2.0 | 8.0 | 0.00 | 0.00 | 0.00 | 31 | 1013.8 |
| 20260506173059 | 77 | 309 | 0.0 | 8.0 | 0.00 | 0.00 | 0.00 | 32 | 1013.8 |
| 20260506171610 | 77 | 0 | 0.0 | 5.0 | 0.00 | 0.00 | 0.00 | 34 | 1013.8 |
| 20260506170100 | 77 | 308 | 1.0 | 8.0 | 0.00 | 0.00 | 0.00 | 35 | 1014.0 |
| 20260506164601 | 76 | 360 | 0.0 | 4.0 | 0.00 | 0.00 | 0.00 | 36 | 1013.8 |
| 20260506163133 | 75 | 360 | 1.0 | 4.0 | 0.00 | 0.00 | 0.00 | 39 | 1013.8 |
| 20260506161557 | 74 | 0 | 2.0 | 6.0 | 0.00 | 0.00 | 0.00 | 41 | 1013.5 |
| 20260506154557 | 72 | 360 | 2.0 | 6.0 | 0.00 | 0.00 | 0.00 | 45 | 1013.4 |
| 20260506153119 | 71 | 360 | 1.0 | 8.0 | 0.00 | 0.00 | 0.00 | 47 | 1013.5 |
| 20260506151558 | 70 | 360 | 2.0 | 10.0 | 0.00 | 0.00 | 0.00 | 50 | 1013.5 |
| 20260506150056 | 69 | 360 | 2.0 | 10.0 | 0.00 | 0.00 | 0.00 | 52 | 1013.3 |
| 20260506144558 | 68 | 265 | 2.0 | 9.0 | 0.00 | 0.00 | 0.00 | 53 | 1013.4 |
| 20260506143058 | 66 | 0 | 1.0 | 7.0 | 0.00 | 0.00 | 0.00 | 54 | 1013.4 |
| 20260506141555 | 64 | 0 | 0.0 | 2.0 | 0.00 | 0.00 | 0.00 | 58 | 1013.2 |
| 20260506140057 | 61 | 239 | 0.0 | 3.0 | 0.00 | 0.00 | 0.00 | 66 | 1013.5 |
| 20260506134556 | 58 | 0 | 0.0 | 1.0 | 0.00 | 0.00 | 0.00 | 75 | 1013.1 |
| 20260506133100 | 54 | 0 | 0.0 | 1.0 | 0.00 | 0.00 | 0.00 | 78 | 1013.1 |
| 20260506131608 | 51 | 0 | 0.0 | 0.0 | 0.00 | 0.00 | 0.00 | 78 | 1012.8 |
| 20260506130059 | 50 | 0 | 0.0 | 0.0 | 0.00 | 0.00 | 0.00 | 79 | 1012.7 |
| 20260506124608 | 50 | 0 | 0.0 | 0.0 | 0.00 | 0.00 | 0.00 | 79 | 1012.4 |
| 20260506123114 | 50 | 0 | 0.0 | 0.0 | 0.00 | 0.00 | 0.00 | 79 | 1012.2 |
| 20260506121613 | 51 | 0 | 0.0 | 0.0 | 0.00 | 0.00 | 0.00 | 79 | 1012.3 |
| 20260506120058 | 51 | 0 | 0.0 | 0.0 | 0.00 | 0.00 | 0.00 | 78 | 1012.2 |
| 20260506114610 | 51 | 0 | 0.0 | 0.0 | 0.00 | 0.00 | 0.00 | 78 | 1012.0 |
| 20260506113058 | 51 | 0 | 0.0 | 0.0 | 0.00 | 0.00 | 0.00 | 78 | 1011.9 |
| 20260506111602 | 51 | 0 | 0.0 | 0.0 | 0.00 | 0.00 | 0.00 | 78 | 1012.0 |
| 20260506110104 | 52 | 0 | 0.0 | 0.0 | 0.00 | 0.00 | 0.00 | 78 | 1012.0 |
| 20260506104607 | 53 | 0 | 0.0 | 0.0 | 0.00 | 0.00 | 0.00 | 78 | 1012.0 |
| 20260506103106 | 53 | 0 | 0.0 | 0.0 | 0.00 | 0.00 | 0.00 | 77 | 1011.9 |
| 20260506101637 | 53 | 0 | 0.0 | 1.0 | 0.00 | 0.00 | 0.00 | 77 | 1012.0 |
| 20260506100100 | 53 | 0 | 0.0 | 1.0 | 0.00 | 0.00 | 0.00 | 77 | 1011.9 |
| 20260506094600 | 53 | 0 | 0.0 | 0.0 | 0.00 | 0.00 | 0.00 | 77 | 1011.9 |
| 20260506093102 | 54 | 0 | 0.0 | 1.0 | 0.00 | 0.00 | 0.00 | 77 | 1011.8 |
| 20260506091559 | 55 | 0 | 0.0 | 0.0 | 0.00 | 0.00 | 0.00 | 76 | 1011.9 |
| 20260506090111 | 56 | 0 | 0.0 | 0.0 | 0.00 | 0.00 | 0.00 | 76 | 1011.8 |
| 20260506084633 | 56 | 0 | 0.0 | 0.0 | 0.00 | 0.00 | 0.00 | 74 | 1011.8 |
| 20260506083059 | 57 | 0 | 0.0 | 1.0 | 0.00 | 0.00 | 0.00 | 73 | 1012.0 |
| 20260506081613 | 59 | 0 | 0.0 | 0.0 | 0.00 | 0.00 | 0.00 | 72 | 1012.0 |
| 20260506073058 | 60 | 0 | 0.0 | 0.0 | 0.00 | 0.00 | 0.00 | 75 | 1012.1 |
| 20260506071600 | 60 | 0 | 0.0 | 1.0 | 0.00 | 0.00 | 0.00 | 76 | 1012.3 |
| 20260506061557 | 60 | 0 | 0.0 | 0.0 | 0.00 | 0.00 | 0.00 | 73 | 1012.2 |
| 20260506050115 | 66 | 0 | 0.0 | 1.0 | 0.00 | 0.00 | 0.00 | 63 | 1011.9 |
| 20260506044600 | 67 | 0 | 0.0 | 1.0 | 0.00 | 0.00 | 0.00 | 61 | 1011.7 |
| 20260506043059 | 67 | 360 | 1.0 | 4.0 | 0.00 | 0.00 | 0.00 | 60 | 1011.4 |
| 20260506041605 | 68 | 360 | 0.0 | 4.0 | 0.00 | 0.00 | 0.00 | 58 | 1011.3 |
| 20260506040059 | 68 | 0 | 1.0 | 4.0 | 0.00 | 0.00 | 0.00 | 57 | 1011.4 |
| 20260506034603 | 68 | 360 | 0.0 | 3.0 | 0.00 | 0.00 | 0.00 | 56 | 1011.2 |
| 20260506033059 | 69 | 360 | 0.0 | 2.0 | 0.00 | 0.00 | 0.00 | 52 | 1011.3 |
| 20260506031557 | 69 | 0 | 0.0 | 1.0 | 0.00 | 0.00 | 0.00 | 49 | 1011.0 |
| 20260506030059 | 70 | 0 | 0.0 | 1.0 | 0.00 | 0.00 | 0.00 | 47 | 1010.8 |
| 20260506024608 | 71 | 0 | 0.0 | 2.0 | 0.00 | 0.00 | 0.00 | 44 | 1010.9 |